Flag for Netherlands Weather past 2 weeks in Zaandam, Netherlands

Now
41 °F

Passing clouds.


Feels Like: 38 °F
Forecast: 40 / 44 °F
Wind: 5 mph from North

Location: Amsterdam Schiphol Airport

Current Time: Dec 29, 2014 at 4:58:47 PM

Latest Report: Dec 29, 2014 at 4:25 PM


Visibility: N/A

Pressure: 30.57 "Hg

Humidity: 81%

Dew point: 36 °F

Location of ZaandamLocation

Historic Weather in Zaandam — Graph

°F

Zaandam temperature yesterday

Maximum temperature yesterday: 39 °F (at 11:25 PM)
Minimum temperature yesterday: 28 °F (at 5:25 PM)
Average temperature yesterday: 33 °F

Past Weeks' High & Low Weather Summary

 TemperatureHumidityPressure
High55 °F (Dec 18, 12:55 PM)100% (Dec 15, 7:55 AM)30.57 "Hg (Dec 15, 7:55 AM)
Low28 °F (Dec 28, 5:25 PM)65% (Dec 27, 9:55 PM)29.45 "Hg (Dec 27, 7:25 AM)
Average44 °F84%30.00 "Hg
* Reported Dec 14 3:25 PM — Dec 29 3:25 PM, Zaandam, Weather by CustomWeather, © 2014

Note: Actual official high and low records may vary slightly from our data, if they occured in-between our weather recording intervals... More about our weather records

Advertising

Zaandam weather history for previous 24 hours

 ConditionsComfort  
Time TempWeatherWind HumidityBarometerVisibility
3:25 PM
Dec 29
41 °FPassing clouds.8 mph87%30.57 "HgN/A
2:55 PM43 °FPassing clouds.7 mph81%30.57 "HgN/A
2:25 PM41 °FScattered clouds.9 mph87%30.54 "HgN/A
1:55 PM43 °FSprinkles. Scattered clouds.10 mph76%30.54 "HgN/A
1:25 PM43 °FSprinkles. Passing clouds.13 mph81%30.54 "HgN/A
12:55 PM45 °FPassing clouds.8 mph76%30.54 "HgN/A
12:25 PM43 °FSprinkles. Scattered clouds.15 mph76%30.54 "HgN/A
11:55 AM45 °FPassing clouds.10 mph76%30.54 "HgN/A
11:25 AM45 °FPassing clouds.10 mph76%30.54 "HgN/A
10:55 AM43 °FPassing clouds.13 mph76%30.51 "HgN/A
10:25 AM43 °FPassing clouds.10 mph76%30.51 "HgN/A
9:55 AM41 °FScattered showers. Passing clouds.10 mph81%30.51 "HgN/A
9:25 AM41 °FPassing clouds.9 mph76%30.48 "HgN/A
8:55 AM39 °FPassing clouds.7 mph87%30.48 "HgN/A
8:25 AM39 °FPassing clouds.8 mph87%30.48 "HgN/A
7:55 AM41 °FScattered showers. Passing clouds.9 mph81%30.48 "HgN/A
7:25 AM39 °FScattered showers. Passing clouds.9 mph81%30.45 "HgN/A
6:55 AM39 °FPassing clouds.8 mph81%30.45 "HgN/A
6:25 AM39 °FPassing clouds.9 mph87%30.45 "HgN/A
5:55 AM41 °FPassing clouds.10 mph87%30.45 "HgN/A
5:25 AM41 °FScattered showers. Passing clouds.12 mph93%30.45 "HgN/A
4:55 AM41 °FScattered showers. Passing clouds.14 mph87%30.42 "HgN/A
4:25 AM41 °FSprinkles. Passing clouds.13 mph87%30.45 "HgN/A
3:55 AM41 °FSprinkles. Passing clouds.13 mph87%30.45 "Hg5 mi
3:25 AM41 °FPassing clouds.12 mph87%30.45 "HgN/A
2:55 AM41 °FScattered showers. Passing clouds.12 mph87%30.45 "HgN/A
2:25 AM41 °FScattered showers. Passing clouds.17 mph81%30.45 "HgN/A
1:55 AM41 °FPassing clouds.14 mph81%30.45 "HgN/A
1:25 AM41 °FScattered showers. Passing clouds.16 mph87%30.45 "HgN/A
12:55 AM41 °FSprinkles. Passing clouds.15 mph93%30.45 "HgN/A
12:25 AM41 °FPassing clouds.14 mph87%30.45 "HgN/A
11:55 PM
Dec 28
39 °FPassing clouds.12 mph87%30.45 "HgN/A
11:25 PM39 °FPassing clouds.9 mph87%30.48 "HgN/A
10:55 PM36 °FScattered showers. Partly cloudy.7 mph87%30.48 "HgN/A
10:25 PM34 °FPartly cloudy.8 mph87%30.48 "HgN/A
9:55 PM34 °FPassing clouds.9 mph87%30.51 "HgN/A
9:25 PM32 °FPassing clouds.6 mph87%30.51 "HgN/A
8:55 PM34 °FPassing clouds.7 mph87%30.51 "HgN/A
8:25 PM34 °FPassing clouds.8 mph87%30.51 "HgN/A
7:55 PM32 °FPassing clouds.6 mph87%30.51 "HgN/A
7:25 PM28 °FPassing clouds.3 mph93%30.51 "HgN/A
6:55 PM28 °FPassing clouds.6 mph86%30.51 "HgN/A
6:25 PM28 °FPassing clouds.2 mph86%30.51 "HgN/A
5:55 PM28 °FPassing clouds.7 mph86%30.51 "HgN/A
5:25 PM28 °FClear.6 mph86%30.48 "Hg10 mi
4:55 PM30 °FClear.6 mph86%30.48 "Hg10 mi
4:25 PM32 °FSunny.5 mph80%30.45 "Hg10 mi
Weather by CustomWeather, © 2014

See weather overviewHow to use our weather pages